Time,TemperatureF,DewpointF,PressureIn,WindDirection,WindDirectionDegrees,WindSpeedMPH,WindSpeedGustMPH,Humidity,HourlyPrecipIn,Conditions,Clouds,dailyrainin,SoftwareType,DateUTC
2013-04-01 00:11:00,17.6,6.1,30.04,NNE,22,2.2,-999.0,60,-99.99,,,0.00,Acu-Link.com,2013-04-01 05:11:00,
2013-04-01 00:27:00,17.4,5.9,30.04,West,270,1.7,-999.0,60,-99.99,,,0.00,Acu-Link.com,2013-04-01 05:27:00,
2013-04-01 00:42:00,17.2,6.1,30.05,West,270,1.7,-999.0,61,-99.99,,,0.00,Acu-Link.com,2013-04-01 05:42:00,
2013-04-01 00:57:00,16.9,5.8,30.05,North,0,1.7,-999.0,61,-99.99,,,0.00,Acu-Link.com,2013-04-01 05:57:00,
2013-04-01 01:12:00,16.7,6.0,30.05,WSW,247,1.7,-999.0,62,-99.99,,,0.00,Acu-Link.com,2013-04-01 06:12:00,
2013-04-01 01:28:00,16.3,5.6,30.05,NE,45,2.2,-999.0,62,-99.99,,,0.00,Acu-Link.com,2013-04-01 06:28:00,
2013-04-01 01:43:00,16.2,5.9,30.06,ESE,112,4.2,-999.0,63,-99.99,,,0.00,Acu-Link.com,2013-04-01 06:43:00,
2013-04-01 01:58:00,16.0,6.0,30.06,North,0,2.2,-999.0,64,-99.99,,,0.00,Acu-Link.com,2013-04-01 06:58:00,
2013-04-01 02:13:00,15.8,5.8,30.07,SSE,157,0.0,-999.0,64,-99.99,,,0.00,Acu-Link.com,2013-04-01 07:13:00,
2013-04-01 02:28:00,15.6,5.6,30.08,SSW,202,1.7,-999.0,64,-99.99,,,0.00,Acu-Link.com,2013-04-01 07:28:00,
2013-04-01 02:44:00,15.4,5.8,30.08,SW,225,2.7,-999.0,65,-99.99,,,0.00,Acu-Link.com,2013-04-01 07:44:00,
2013-04-01 02:59:00,15.3,5.7,30.08,WSW,247,2.2,-999.0,65,-99.99,,,0.00,Acu-Link.com,2013-04-01 07:59:00,
2013-04-01 03:14:00,15.3,5.7,30.08,ESE,112,2.2,-999.0,65,-99.99,,,0.00,Acu-Link.com,2013-04-01 08:14:00,
2013-04-01 03:29:00,15.1,5.5,30.08,ENE,67,6.8,-999.0,65,-99.99,,,0.00,Acu-Link.com,2013-04-01 08:29:00,
2013-04-01 03:44:00,14.9,5.6,30.07,WNW,292,2.2,-999.0,66,-99.99,,,0.00,Acu-Link.com,2013-04-01 08:44:00,
2013-04-01 03:59:00,14.7,5.8,30.08,North,0,2.2,-999.0,67,-99.99,,,0.00,Acu-Link.com,2013-04-01 08:59:00,
2013-04-01 04:15:00,14.4,5.5,30.08,North,0,1.7,-999.0,67,-99.99,,,0.00,Acu-Link.com,2013-04-01 09:15:00,
2013-04-01 04:30:00,14.2,5.6,30.08,NE,45,1.7,-999.0,68,-99.99,,,0.00,Acu-Link.com,2013-04-01 09:30:00,
2013-04-01 04:45:00,14.0,5.4,30.09,South,180,2.2,-999.0,68,-99.99,,,0.00,Acu-Link.com,2013-04-01 09:45:00,
2013-04-01 05:00:00,14.0,5.4,30.10,NE,45,1.1,-999.0,68,-99.99,,,0.00,Acu-Link.com,2013-04-01 10:00:00,
2013-04-01 05:15:00,13.8,5.5,30.10,East,90,3.2,-999.0,69,-99.99,,,0.00,Acu-Link.com,2013-04-01 10:15:00,
2013-04-01 05:30:00,13.6,5.4,30.10,North,0,3.2,-999.0,69,-99.99,,,0.00,Acu-Link.com,2013-04-01 10:30:00,
2013-04-01 05:45:00,13.5,5.3,30.11,WNW,292,3.2,-999.0,69,-99.99,,,0.00,Acu-Link.com,2013-04-01 10:45:00,
2013-04-01 06:01:00,13.3,5.4,30.12,North,0,1.7,-999.0,70,-99.99,,,0.00,Acu-Link.com,2013-04-01 11:01:00,
2013-04-01 06:31:00,12.7,4.8,30.14,SW,225,1.7,-999.0,70,-99.99,,,0.00,Acu-Link.com,2013-04-01 11:31:00,
2013-04-01 06:46:00,12.6,4.7,30.14,North,0,1.7,-999.0,70,-99.99,,,0.00,Acu-Link.com,2013-04-01 11:46:00,
2013-04-01 07:02:00,12.4,4.8,30.14,NNW,337,1.1,-999.0,71,-99.99,,,0.00,Acu-Link.com,2013-04-01 12:02:00,
2013-04-01 07:17:00,12.4,5.1,30.15,NNW,337,0.0,-999.0,72,-99.99,,,0.00,Acu-Link.com,2013-04-01 12:17:00,
2013-04-01 07:32:00,13.1,5.8,30.15,NNW,337,2.2,-999.0,72,-99.99,,,0.00,Acu-Link.com,2013-04-01 12:32:00,
2013-04-01 07:47:00,12.6,5.0,30.16,East,90,3.2,-999.0,71,-99.99,,,0.00,Acu-Link.com,2013-04-01 12:47:00,
2013-04-01 08:02:00,13.1,5.2,30.16,ESE,112,3.7,-999.0,70,-99.99,,,0.00,Acu-Link.com,2013-04-01 13:02:00,
2013-04-01 08:18:00,13.6,5.4,30.17,NE,45,1.7,-999.0,69,-99.99,,,0.00,Acu-Link.com,2013-04-01 13:18:00,
2013-04-01 08:33:00,14.9,5.3,30.16,East,90,3.7,-999.0,65,-99.99,,,0.00,Acu-Link.com,2013-04-01 13:33:00,
2013-04-01 08:48:00,15.3,5.3,30.17,NNW,337,4.2,-999.0,64,-99.99,,,0.00,Acu-Link.com,2013-04-01 13:48:00,
2013-04-01 09:04:00,18.7,7.2,30.16,East,90,3.7,-999.0,60,-99.99,,,0.00,Acu-Link.com,2013-04-01 14:04:00,
2013-04-01 09:19:00,18.0,6.5,30.16,SW,225,2.7,-999.0,60,-99.99,,,0.00,Acu-Link.com,2013-04-01 14:19:00,
2013-04-01 09:34:00,18.0,6.1,30.17,ENE,67,4.2,-999.0,59,-99.99,,,0.00,Acu-Link.com,2013-04-01 14:34:00,
2013-04-01 09:49:00,18.9,6.6,30.17,SW,225,2.7,-999.0,58,-99.99,,,0.00,Acu-Link.com,2013-04-01 14:49:00,
2013-04-01 10:05:00,19.2,6.1,30.17,SW,225,2.7,-999.0,56,-99.99,,,0.00,Acu-Link.com,2013-04-01 15:05:00,
2013-04-01 10:20:00,19.6,6.5,30.17,East,90,1.7,-999.0,56,-99.99,,,0.00,Acu-Link.com,2013-04-01 15:20:00,
2013-04-01 10:35:00,20.3,6.7,30.17,East,90,4.7,-999.0,55,-99.99,,,0.00,Acu-Link.com,2013-04-01 15:35:00,
2013-04-01 10:51:00,20.7,6.3,30.17,ESE,112,3.2,-999.0,53,-99.99,,,0.00,Acu-Link.com,2013-04-01 15:51:00,
2013-04-01 11:06:00,21.6,7.1,30.17,NNE,22,3.2,-999.0,53,-99.99,,,0.00,Acu-Link.com,2013-04-01 16:06:00,
2013-04-01 11:37:00,22.8,6.5,30.18,NE,45,4.7,-999.0,49,-99.99,,,0.00,Acu-Link.com,2013-04-01 16:37:00,
2013-04-01 12:07:00,24.8,8.8,30.18,SW,225,1.7,-999.0,50,-99.99,,,0.00,Acu-Link.com,2013-04-01 17:07:00,
2013-04-01 12:23:00,25.5,8.1,30.18,ENE,67,2.2,-999.0,47,-99.99,,,0.00,Acu-Link.com,2013-04-01 17:23:00,
2013-04-01 12:38:00,25.9,6.5,30.17,WNW,292,2.2,-999.0,43,-99.99,,,0.00,Acu-Link.com,2013-04-01 17:38:00,
2013-04-01 12:53:00,27.0,7.0,30.17,NE,45,2.2,-999.0,42,-99.99,,,0.00,Acu-Link.com,2013-04-01 17:53:00,
2013-04-01 13:08:00,27.7,8.2,30.16,SSW,202,2.2,-999.0,43,-99.99,,,0.00,Acu-Link.com,2013-04-01 18:08:00,
2013-04-01 13:24:00,29.3,9.1,30.17,West,270,3.7,-999.0,42,-99.99,,,0.00,Acu-Link.com,2013-04-01 18:24:00,
2013-04-01 13:39:00,28.8,7.6,30.16,NE,45,4.7,-999.0,40,-99.99,,,0.00,Acu-Link.com,2013-04-01 18:39:00,
2013-04-01 13:54:00,29.7,8.4,30.15,SW,225,2.2,-999.0,40,-99.99,,,0.00,Acu-Link.com,2013-04-01 18:54:00,
2013-04-01 14:09:00,31.3,9.8,30.15,SSW,202,2.7,-999.0,40,-99.99,,,0.00,Acu-Link.com,2013-04-01 19:09:00,
2013-04-01 14:25:00,32.4,9.7,30.15,SW,225,2.7,-999.0,38,-99.99,,,0.00,Acu-Link.com,2013-04-01 19:25:00,
2013-04-01 14:40:00,31.1,6.0,30.15,NNE,22,4.2,-999.0,34,-99.99,,,0.00,Acu-Link.com,2013-04-01 19:40:00,
2013-04-01 14:55:00,32.2,8.9,30.15,NE,45,3.7,-999.0,37,-99.99,,,0.00,Acu-Link.com,2013-04-01 19:55:00,
2013-04-01 15:10:00,32.9,9.5,30.15,ESE,112,3.7,-999.0,37,-99.99,,,0.00,Acu-Link.com,2013-04-01 20:10:00,
2013-04-01 15:26:00,33.3,9.3,30.15,ESE,112,2.2,-999.0,36,-99.99,,,0.00,Acu-Link.com,2013-04-01 20:26:00,
2013-04-01 15:41:00,33.8,9.7,30.14,SSW,202,2.7,-999.0,36,-99.99,,,0.00,Acu-Link.com,2013-04-01 20:41:00,
2013-04-01 15:56:00,33.3,9.3,30.14,NE,45,4.7,-999.0,36,-99.99,,,0.00,Acu-Link.com,2013-04-01 20:56:00,
2013-04-01 16:26:00,34.7,9.2,30.14,SW,225,4.2,-999.0,34,-99.99,,,0.00,Acu-Link.com,2013-04-01 21:26:00,
2013-04-01 16:57:00,33.1,8.5,30.13,NNE,22,4.2,-999.0,35,-99.99,,,0.00,Acu-Link.com,2013-04-01 21:57:00,
2013-04-01 17:12:00,32.9,5.6,30.13,NNE,22,3.2,-999.0,31,-99.99,,,0.00,Acu-Link.com,2013-04-01 22:12:00,
2013-04-01 17:27:00,35.1,6.1,30.13,ESE,112,2.2,-999.0,29,-99.99,,,0.00,Acu-Link.com,2013-04-01 22:27:00,
2013-04-01 17:42:00,35.8,9.5,30.13,ESE,112,2.7,-999.0,33,-99.99,,,0.00,Acu-Link.com,2013-04-01 22:42:00,
2013-04-01 17:58:00,34.7,7.2,30.14,South,180,2.2,-999.0,31,-99.99,,,0.00,Acu-Link.com,2013-04-01 22:58:00,
2013-04-01 18:13:00,34.0,8.6,30.13,SSW,202,4.2,-999.0,34,-99.99,,,0.00,Acu-Link.com,2013-04-01 23:13:00,
2013-04-01 18:28:00,32.9,6.3,30.13,SSW,202,2.7,-999.0,32,-99.99,,,0.00,Acu-Link.com,2013-04-01 23:28:00,
2013-04-01 18:44:00,31.6,4.5,30.13,NNE,22,3.7,-999.0,31,-99.99,,,0.00,Acu-Link.com,2013-04-01 23:44:00,
2013-04-01 18:59:00,30.7,4.4,30.13,East,90,3.2,-999.0,32,-99.99,,,0.00,Acu-Link.com,2013-04-01 23:59:00,
2013-04-01 19:14:00,29.8,6.1,30.14,ESE,112,2.7,-999.0,36,-99.99,,,0.00,Acu-Link.com,2013-04-02 00:14:00,
2013-04-01 19:29:00,29.1,8.9,30.13,NNE,22,1.7,-999.0,42,-99.99,,,0.00,Acu-Link.com,2013-04-02 00:29:00,
2013-04-01 19:45:00,28.0,10.4,30.13,WSW,247,2.2,-999.0,47,-99.99,,,0.00,Acu-Link.com,2013-04-02 00:45:00,
2013-04-01 20:00:00,27.3,8.3,30.13,SW,225,0.0,-999.0,44,-99.99,,,0.00,Acu-Link.com,2013-04-02 01:00:00,
2013-04-01 20:15:00,26.8,8.8,30.13,South,180,0.0,-999.0,46,-99.99,,,0.00,Acu-Link.com,2013-04-02 01:15:00,
2013-04-01 20:46:00,25.5,8.1,30.14,SW,225,1.7,-999.0,47,-99.99,,,0.00,Acu-Link.com,2013-04-02 01:46:00,
2013-04-01 21:01:00,25.2,9.2,30.15,WSW,247,1.7,-999.0,50,-99.99,,,0.00,Acu-Link.com,2013-04-02 02:01:00,
2013-04-01 21:17:00,24.6,9.9,30.15,SSE,157,1.7,-999.0,53,-99.99,,,0.00,Acu-Link.com,2013-04-02 02:17:00,
2013-04-01 21:32:00,24.3,8.8,30.15,SSW,202,1.1,-999.0,51,-99.99,,,0.00,Acu-Link.com,2013-04-02 02:32:00,
2013-04-01 21:47:00,23.9,9.7,30.16,NNE,22,1.1,-999.0,54,-99.99,,,0.00,Acu-Link.com,2013-04-02 02:47:00,
2013-04-01 22:02:00,23.4,8.4,30.16,WNW,292,1.1,-999.0,52,-99.99,,,0.00,Acu-Link.com,2013-04-02 03:02:00,
2013-04-01 22:18:00,23.0,8.9,30.16,SSW,202,0.0,-999.0,54,-99.99,,,0.00,Acu-Link.com,2013-04-02 03:18:00,
2013-04-01 22:33:00,22.6,7.7,30.16,SSE,157,1.7,-999.0,52,-99.99,,,0.00,Acu-Link.com,2013-04-02 03:33:00,
2013-04-01 22:48:00,22.5,8.0,30.16,ESE,112,1.1,-999.0,53,-99.99,,,0.00,Acu-Link.com,2013-04-02 03:48:00,
2013-04-01 23:04:00,21.9,9.0,30.16,ESE,112,3.2,-999.0,57,-99.99,,,0.00,Acu-Link.com,2013-04-02 04:04:00,
2013-04-01 23:19:00,21.6,9.5,30.16,SW,225,0.0,-999.0,59,-99.99,,,0.00,Acu-Link.com,2013-04-02 04:19:00,
2013-04-01 23:34:00,21.0,9.7,30.16,SW,225,1.7,-999.0,61,-99.99,,,0.00,Acu-Link.com,2013-04-02 04:34:00,
2013-04-01 23:49:00,20.5,10.3,30.16,SSW,202,2.2,-999.0,64,-99.99,,,0.00,Acu-Link.com,2013-04-02 04:49:00,